| time (UTC) | temp C | wind direction | speed KPH | gust KPH | rain 1hr cm | rain 24hr cm | rain mn cm | humidity % | barometer mb |
| 20260510214007 | 28 | 352 | 1.6 | 6.4 | 0.00 | 0.03 | 0.00 | 63 | 1015.3 |
| 20260510213502 | 28 | 352 | 1.6 | 4.8 | 0.00 | 0.03 | 0.00 | 64 | 1015.2 |
| 20260510213015 | 28 | 137 | 0.0 | 3.2 | 0.00 | 0.03 | 0.00 | 66 | 1015.3 |
| 20260510212502 | 28 | 137 | 1.6 | 6.4 | 0.00 | 0.03 | 0.00 | 64 | 1015.2 |
| 20260510212008 | 28 | 160 | 1.6 | 6.4 | 0.00 | 0.03 | 0.00 | 63 | 1015.2 |
| 20260510211518 | 28 | 190 | 0.0 | 4.8 | 0.00 | 0.03 | 0.00 | 65 | 1015.4 |
| 20260510211007 | 28 | 235 | 1.6 | 4.8 | 0.00 | 0.03 | 0.00 | 64 | 1015.5 |
| 20260510210506 | 28 | 334 | 0.0 | 4.8 | 0.00 | 0.03 | 0.00 | 65 | 1015.5 |
| 20260510210023 | 27 | 138 | 0.0 | 4.8 | 0.00 | 0.03 | 0.00 | 67 | 1015.6 |
| 20260510205507 | 27 | 156 | 0.0 | 3.2 | 0.00 | 0.03 | 0.00 | 68 | 1015.6 |
| 20260510205007 | 27 | 59 | 0.0 | 3.2 | 0.00 | 0.03 | 0.00 | 66 | 1015.6 |
| 20260510204526 | 27 | 105 | 1.6 | 3.2 | 0.00 | 0.03 | 0.00 | 68 | 1015.6 |
| 20260510204006 | 27 | 184 | 0.0 | 3.2 | 0.00 | 0.03 | 0.00 | 67 | 1015.6 |
| 20260510203503 | 27 | 116 | 0.0 | 6.4 | 0.00 | 0.03 | 0.00 | 68 | 1015.6 |
| 20260510203014 | 27 | 116 | 1.6 | 8.0 | 0.00 | 0.03 | 0.00 | 67 | 1015.6 |
| 20260510202504 | 27 | 65 | 3.2 | 8.0 | 0.00 | 0.03 | 0.00 | 68 | 1015.7 |
| 20260510202007 | 27 | 96 | 0.0 | 8.0 | 0.00 | 0.03 | 0.00 | 69 | 1015.7 |
| 20260510201519 | 26 | 96 | 3.2 | 8.0 | 0.00 | 0.03 | 0.00 | 70 | 1015.7 |
| 20260510201006 | 26 | 83 | 3.2 | 11.3 | 0.00 | 0.03 | 0.00 | 70 | 1015.8 |
| 20260510200507 | 26 | 29 | 3.2 | 11.3 | 0.00 | 0.03 | 0.00 | 68 | 1015.8 |
| 20260510200024 | 27 | 109 | 3.2 | 11.3 | 0.00 | 0.03 | 0.00 | 66 | 1015.8 |
| 20260510195506 | 27 | 85 | 4.8 | 9.7 | 0.00 | 0.03 | 0.00 | 68 | 1015.8 |
| 20260510195007 | 27 | 104 | 4.8 | 9.7 | 0.00 | 0.03 | 0.00 | 69 | 1015.9 |
| 20260510194528 | 27 | 80 | 6.4 | 9.7 | 0.00 | 0.03 | 0.00 | 68 | 1015.9 |
| 20260510194007 | 27 | 25 | 0.0 | 8.0 | 0.00 | 0.03 | 0.00 | 68 | 1016.0 |
| 20260510193507 | 27 | 96 | 4.8 | 11.3 | 0.00 | 0.03 | 0.00 | 67 | 1016.0 |
| 20260510193030 | 27 | 317 | 4.8 | 11.3 | 0.00 | 0.03 | 0.00 | 67 | 1016.0 |
| 20260510192503 | 27 | 251 | 3.2 | 9.7 | 0.00 | 0.03 | 0.00 | 67 | 1016.0 |
| 20260510192007 | 27 | 331 | 3.2 | 9.7 | 0.00 | 0.03 | 0.00 | 67 | 1016.0 |
| 20260510191516 | 27 | 34 | 4.8 | 9.7 | 0.00 | 0.03 | 0.00 | 66 | 1016.1 |
| 20260510191004 | 27 | 94 | 3.2 | 6.4 | 0.00 | 0.03 | 0.00 | 67 | 1016.0 |
| 20260510190511 | 27 | 267 | 1.6 | 4.8 | 0.00 | 0.03 | 0.00 | 68 | 1016.1 |
| 20260510190023 | 27 | 215 | 0.0 | 6.4 | 0.00 | 0.03 | 0.00 | 73 | 1016.1 |
| 20260510185506 | 26 | 60 | 4.8 | 9.7 | 0.00 | 0.03 | 0.00 | 68 | 1016.2 |
| 20260510185007 | 26 | 109 | 6.4 | 9.7 | 0.00 | 0.03 | 0.00 | 68 | 1016.1 |
| 20260510184532 | 27 | 88 | 4.8 | 8.0 | 0.00 | 0.03 | 0.00 | 68 | 1016.2 |
| 20260510184007 | 27 | 360 | 1.6 | 9.7 | 0.00 | 0.05 | 0.00 | 68 | 1016.1 |
| 20260510183509 | 26 | 302 | 0.0 | 9.7 | 0.00 | 0.05 | 0.00 | 72 | 1016.2 |
| 20260510183026 | 26 | 134 | 3.2 | 8.0 | 0.00 | 0.05 | 0.00 | 72 | 1016.1 |
| 20260510182508 | 26 | 20 | 1.6 | 8.0 | 0.00 | 0.08 | 0.00 | 71 | 1016.3 |
| 20260510182013 | 26 | 97 | 3.2 | 8.0 | 0.00 | 0.10 | 0.00 | 71 | 1016.3 |
| 20260510181514 | 26 | 91 | 4.8 | 12.9 | 0.00 | 0.15 | 0.00 | 73 | 1016.4 |
| 20260510181004 | 26 | 128 | 6.4 | 11.3 | 0.00 | 0.18 | 0.00 | 72 | 1016.3 |
| 20260510180506 | 25 | 352 | 1.6 | 4.8 | 0.00 | 0.23 | 0.00 | 75 | 1016.4 |
| 20260510180021 | 25 | 215 | 0.0 | 9.7 | 0.00 | 0.30 | 0.00 | 72 | 1016.5 |
| 20260510175510 | 25 | 74 | 4.8 | 8.0 | 0.00 | 0.36 | 0.00 | 73 | 1016.6 |
| 20260510175010 | 25 | 213 | 4.8 | 8.0 | 0.00 | 0.43 | 0.00 | 73 | 1016.6 |
| 20260510174525 | 25 | 178 | 4.8 | 6.4 | 0.00 | 0.48 | 0.00 | 73 | 1016.7 |
| 20260510174010 | 25 | 288 | 4.8 | 6.4 | 0.00 | 0.51 | 0.00 | 74 | 1017.0 |
| 20260510173507 | 25 | 135 | 1.6 | 8.0 | 0.00 | 0.56 | 0.00 | 75 | 1017.0 |
| 20260510173027 | 25 | 5 | 3.2 | 9.7 | 0.00 | 0.61 | 0.00 | 77 | 1017.1 |
| 20260510172509 | 24 | 23 | 4.8 | 11.3 | 0.00 | 0.66 | 0.00 | 76 | 1017.2 |
| 20260510172010 | 25 | 32 | 4.8 | 11.3 | 0.00 | 0.69 | 0.00 | 76 | 1017.1 |
| 20260510171528 | 25 | 280 | 4.8 | 8.0 | 0.00 | 0.69 | 0.00 | 76 | 1017.2 |
| 20260510171008 | 25 | 86 | 3.2 | 9.7 | 0.00 | 0.74 | 0.00 | 77 | 1017.1 |
| 20260510170508 | 24 | 311 | 3.2 | 9.7 | 0.00 | 0.76 | 0.00 | 76 | 1017.1 |
| 20260510170019 | 24 | 45 | 6.4 | 12.9 | 0.00 | 0.79 | 0.00 | 78 | 1017.3 |
| 20260510165505 | 24 | 23 | 4.8 | 12.9 | 0.00 | 0.84 | 0.00 | 79 | 1017.3 |
| 20260510165005 | 24 | 92 | 4.8 | 9.7 | 0.00 | 0.89 | 0.00 | 80 | 1017.3 |
| 20260510164523 | 24 | 32 | 3.2 | 8.0 | 0.00 | 0.94 | 0.00 | 78 | 1017.4 |
| 20260510164006 | 24 | 342 | 4.8 | 11.3 | 0.00 | 1.02 | 0.00 | 78 | 1017.4 |
| 20260510163508 | 24 | 34 | 4.8 | 11.3 | 0.00 | 1.17 | 0.00 | 79 | 1017.4 |
| 20260510163026 | 24 | 127 | 3.2 | 9.7 | 0.00 | 1.45 | 0.00 | 78 | 1017.4 |
| 20260510162508 | 24 | 75 | 3.2 | 9.7 | 0.00 | 1.63 | 0.00 | 80 | 1017.5 |
| 20260510162003 | 24 | 87 | 3.2 | 9.7 | 0.00 | 1.65 | 0.00 | 79 | 1017.6 |
| 20260510161512 | 23 | 211 | 1.6 | 11.3 | 0.00 | 1.65 | 0.00 | 78 | 1017.5 |
| 20260510161005 | 23 | 122 | 6.4 | 11.3 | 0.00 | 1.65 | 0.00 | 79 | 1017.5 |
| 20260510160503 | 23 | 151 | 3.2 | 6.4 | 0.00 | 1.65 | 0.00 | 79 | 1017.4 |
| 20260510160017 | 23 | 248 | 0.0 | 4.8 | 0.00 | 1.65 | 0.00 | 79 | 1017.6 |
| 20260510155504 | 23 | 209 | 1.6 | 6.4 | 0.00 | 1.68 | 0.00 | 79 | 1017.7 |
| 20260510155004 | 23 | 136 | 3.2 | 8.0 | 0.00 | 1.78 | 0.00 | 83 | 1017.7 |
| 20260510154504 | 23 | 71 | 3.2 | 8.0 | 0.00 | 1.83 | 0.00 | 81 | 1017.7 |
| 20260510154004 | 22 | 47 | 1.6 | 9.7 | 0.00 | 1.93 | 0.00 | 81 | 1017.7 |
| 20260510153503 | 22 | 80 | 3.2 | 9.7 | 0.00 | 2.03 | 0.00 | 81 | 1017.7 |
| 20260510153005 | 22 | 83 | 6.4 | 9.7 | 0.00 | 2.24 | 0.00 | 83 | 1017.8 |
| 20260510152505 | 22 | 5 | 3.2 | 12.9 | 0.00 | 2.26 | 0.00 | 82 | 1017.7 |
| 20260510152004 | 22 | 88 | 4.8 | 12.9 | 0.00 | 2.26 | 0.00 | 83 | 1017.7 |
| 20260510151511 | 22 | 79 | 8.0 | 12.9 | 0.00 | 2.29 | 0.00 | 84 | 1017.6 |
| 20260510151005 | 22 | 341 | 6.4 | 11.3 | 0.00 | 2.36 | 0.00 | 84 | 1017.6 |
| 20260510150506 | 22 | 58 | 6.4 | 9.7 | 0.00 | 2.39 | 0.00 | 83 | 1017.5 |
| 20260510150016 | 22 | 86 | 4.8 | 9.7 | 0.00 | 2.41 | 0.00 | 84 | 1017.5 |
| 20260510145511 | 22 | 360 | 4.8 | 11.3 | 0.00 | 2.41 | 0.00 | 84 | 1017.5 |
| 20260510145006 | 22 | 29 | 3.2 | 11.3 | 0.00 | 2.44 | 0.00 | 86 | 1017.5 |
| 20260510144524 | 21 | 78 | 1.6 | 8.0 | 0.00 | 2.44 | 0.00 | 87 | 1017.5 |
| 20260510144007 | 21 | 38 | 4.8 | 8.0 | 0.00 | 2.46 | 0.00 | 87 | 1017.5 |
| 20260510143502 | 21 | 105 | 3.2 | 8.0 | 0.00 | 2.46 | 0.00 | 87 | 1017.4 |
| 20260510143007 | 21 | 131 | 0.0 | 6.4 | 0.00 | 2.49 | 0.00 | 87 | 1017.4 |
| 20260510142503 | 21 | 90 | 3.2 | 8.0 | 0.00 | 2.51 | 0.00 | 89 | 1017.4 |
| 20260510142003 | 21 | 153 | 6.4 | 11.3 | 0.00 | 2.54 | 0.00 | 90 | 1017.4 |
| 20260510141510 | 21 | 119 | 4.8 | 11.3 | 0.00 | 2.54 | 0.00 | 90 | 1017.3 |
| 20260510141008 | 20 | 100 | 4.8 | 11.3 | 0.00 | 2.54 | 0.00 | 92 | 1017.3 |
| 20260510140504 | 20 | 90 | 1.6 | 6.4 | 0.00 | 2.59 | 0.00 | 94 | 1017.2 |
| 20260510140013 | 20 | 71 | 3.2 | 6.4 | 0.00 | 2.59 | 0.00 | 95 | 1017.3 |
| 20260510135505 | 20 | 74 | 1.6 | 6.4 | 0.00 | 2.62 | 0.00 | 95 | 1017.4 |
| 20260510135009 | 19 | 94 | 3.2 | 6.4 | 0.00 | 2.62 | 0.00 | 96 | 1017.4 |
| 20260510134523 | 20 | 40 | 4.8 | 6.4 | 0.00 | 2.62 | 0.00 | 96 | 1017.4 |
| 20260510134005 | 19 | 33 | 3.2 | 6.4 | 0.00 | 2.62 | 0.00 | 97 | 1017.3 |
| 20260510133506 | 19 | 360 | 3.2 | 6.4 | 0.00 | 2.62 | 0.00 | 97 | 1017.4 |
| 20260510133025 | 19 | 336 | 4.8 | 6.4 | 0.00 | 2.62 | 0.00 | 97 | 1017.4 |
| 20260510132504 | 19 | 35 | 1.6 | 6.4 | 0.00 | 2.62 | 0.00 | 97 | 1017.5 |
| 20260510132003 | 19 | 66 | 3.2 | 6.4 | 0.00 | 2.62 | 0.00 | 97 | 1017.3 |
| 20260510131504 | 19 | 180 | 3.2 | 6.4 | 0.00 | 2.62 | 0.00 | 97 | 1017.3 |
| 20260510131004 | 19 | 57 | 3.2 | 6.4 | 0.00 | 2.62 | 0.00 | 97 | 1017.2 |
| 20260510130503 | 19 | 50 | 3.2 | 6.4 | 0.00 | 2.62 | 0.00 | 97 | 1017.2 |
| 20260510130028 | 19 | 51 | 3.2 | 4.8 | 0.00 | 2.62 | 0.00 | 97 | 1017.1 |
| 20260510125506 | 19 | 42 | 1.6 | 3.2 | 0.00 | 2.62 | 0.00 | 98 | 1017.0 |
| 20260510125008 | 19 | 24 | 1.6 | 4.8 | 0.00 | 2.62 | 0.00 | 98 | 1016.9 |
| 20260510124516 | 18 | 33 | 0.0 | 4.8 | 0.00 | 2.62 | 0.00 | 98 | 1016.9 |
| 20260510124006 | 18 | 108 | 3.2 | 4.8 | 0.00 | 2.62 | 0.00 | 98 | 1016.8 |
| 20260510123507 | 18 | 76 | 3.2 | 4.8 | 0.00 | 2.62 | 0.00 | 98 | 1016.8 |
| 20260510123024 | 18 | 69 | 1.6 | 3.2 | 0.00 | 2.62 | 0.00 | 98 | 1016.7 |
| 20260510122508 | 18 | 23 | 1.6 | 4.8 | 0.00 | 2.62 | 0.00 | 98 | 1016.6 |
| 20260510122006 | 18 | 63 | 3.2 | 4.8 | 0.00 | 2.62 | 0.00 | 98 | 1016.5 |
| 20260510121505 | 18 | 122 | 0.0 | 3.2 | 0.00 | 2.62 | 0.00 | 98 | 1016.4 |
| 20260510121003 | 18 | 157 | 1.6 | 4.8 | 0.00 | 2.62 | 0.00 | 98 | 1016.4 |
| 20260510120504 | 18 | 28 | 1.6 | 4.8 | 0.00 | 2.62 | 0.00 | 98 | 1016.4 |
| 20260510120013 | 18 | 57 | 0.0 | 6.4 | 0.00 | 2.62 | 0.00 | 98 | 1016.3 |
| 20260510115503 | 18 | 26 | 1.6 | 6.4 | 0.00 | 2.62 | 0.00 | 98 | 1016.3 |
| 20260510115003 | 18 | 333 | 1.6 | 4.8 | 0.00 | 2.62 | 0.00 | 98 | 1016.3 |
| 20260510114514 | 18 | 45 | 1.6 | 4.8 | 0.00 | 2.62 | 0.00 | 98 | 1016.2 |
| 20260510114007 | 18 | 344 | 0.0 | 4.8 | 0.00 | 2.62 | 0.00 | 98 | 1016.1 |
| 20260510113507 | 18 | 331 | 1.6 | 4.8 | 0.00 | 2.62 | 0.00 | 98 | 1016.0 |
| 20260510113037 | 18 | 336 | 1.6 | 4.8 | 0.00 | 2.62 | 0.00 | 97 | 1015.9 |
| 20260510112512 | 18 | 13 | 1.6 | 4.8 | 0.00 | 2.62 | 0.00 | 97 | 1015.8 |
| 20260510112010 | 18 | 329 | 1.6 | 3.2 | 0.00 | 2.62 | 0.00 | 97 | 1015.7 |
| 20260510111526 | 18 | 352 | 0.0 | 0.0 | 0.00 | 2.62 | 0.00 | 97 | 1015.6 |
| 20260510111010 | 18 | 82 | 0.0 | 0.0 | 0.00 | 2.62 | 0.00 | 97 | 1015.5 |
| 20260510110503 | 18 | 88 | 0.0 | 3.2 | 0.00 | 2.62 | 0.00 | 97 | 1015.4 |
| 20260510110022 | 18 | 123 | 0.0 | 3.2 | 0.00 | 2.62 | 0.00 | 97 | 1015.4 |
| 20260510105504 | 18 | 105 | 0.0 | 1.6 | 0.00 | 2.62 | 0.00 | 97 | 1015.3 |
| 20260510105001 | 18 | 86 | 0.0 | 3.2 | 0.00 | 2.62 | 0.00 | 97 | 1015.2 |
| 20260510104515 | 18 | 86 | 1.6 | 3.2 | 0.00 | 2.62 | 0.00 | 97 | 1015.2 |
| 20260510104006 | 18 | 85 | 0.0 | 3.2 | 0.00 | 2.62 | 0.00 | 97 | 1015.1 |
| 20260510103503 | 18 | 85 | 1.6 | 3.2 | 0.00 | 2.62 | 0.00 | 97 | 1015.0 |
| 20260510103021 | 18 | 92 | 1.6 | 3.2 | 0.00 | 2.62 | 0.00 | 97 | 1015.0 |
| 20260510102512 | 18 | 115 | 1.6 | 3.2 | 0.00 | 2.62 | 0.00 | 97 | 1015.0 |
| 20260510102007 | 18 | 152 | 0.0 | 0.0 | 0.00 | 2.62 | 0.00 | 97 | 1015.0 |
| 20260510101526 | 18 | 152 | 0.0 | 4.8 | 0.00 | 2.62 | 0.00 | 97 | 1015.1 |
| 20260510101008 | 18 | 152 | 0.0 | 4.8 | 0.00 | 2.62 | 0.00 | 97 | 1014.9 |
| 20260510100513 | 18 | 103 | 3.2 | 4.8 | 0.00 | 2.62 | 0.00 | 97 | 1014.7 |
| 20260510100028 | 18 | 106 | 1.6 | 4.8 | 0.00 | 2.62 | 0.00 | 97 | 1014.7 |
| 20260510095505 | 18 | 113 | 0.0 | 1.6 | 0.00 | 2.62 | 0.00 | 97 | 1014.9 |
| 20260510095004 | 18 | 42 | 0.0 | 4.8 | 0.00 | 2.62 | 0.00 | 97 | 1014.8 |
| 20260510094515 | 18 | 65 | 3.2 | 4.8 | 0.00 | 2.62 | 0.00 | 97 | 1014.8 |
| 20260510094004 | 18 | 90 | 3.2 | 4.8 | 0.00 | 2.62 | 0.00 | 97 | 1014.9 |
| 20260510093509 | 18 | 83 | 0.0 | 0.0 | 0.00 | 2.62 | 0.00 | 97 | 1014.9 |
| 20260510093022 | 18 | 83 | 0.0 | 3.2 | 0.00 | 2.62 | 0.00 | 97 | 1014.9 |
| 20260510092507 | 18 | 83 | 0.0 | 3.2 | 0.00 | 2.62 | 0.00 | 97 | 1014.7 |
| 20260510092008 | 18 | 83 | 0.0 | 3.2 | 0.00 | 2.62 | 0.00 | 97 | 1014.7 |
| 20260510091523 | 18 | 90 | 1.6 | 4.8 | 0.00 | 2.62 | 0.00 | 97 | 1014.6 |
| 20260510091008 | 18 | 90 | 3.2 | 4.8 | 0.00 | 2.62 | 0.00 | 97 | 1014.4 |
| 20260510090507 | 18 | 122 | 1.6 | 4.8 | 0.00 | 2.62 | 0.00 | 97 | 1014.4 |
| 20260510090040 | 18 | 90 | 4.8 | 4.8 | 0.00 | 2.62 | 0.00 | 97 | 1014.2 |
| 20260510085508 | 18 | 98 | 3.2 | 4.8 | 0.00 | 2.62 | 0.00 | 97 | 1014.4 |
| 20260510085006 | 18 | 118 | 1.6 | 4.8 | 0.00 | 2.62 | 0.00 | 97 | 1014.2 |
| 20260510084517 | 18 | 73 | 1.6 | 4.8 | 0.00 | 2.62 | 0.00 | 97 | 1014.2 |
| 20260510084004 | 18 | 72 | 1.6 | 4.8 | 0.00 | 2.62 | 0.00 | 97 | 1014.1 |
| 20260510083505 | 18 | 26 | 1.6 | 3.2 | 0.00 | 2.62 | 0.00 | 97 | 1014.1 |
| 20260510083017 | 18 | 33 | 1.6 | 3.2 | 0.00 | 2.62 | 0.00 | 97 | 1014.2 |
| 20260510082508 | 18 | 352 | 0.0 | 3.2 | 0.00 | 2.62 | 0.00 | 97 | 1014.1 |
| 20260510082007 | 18 | 352 | 0.0 | 3.2 | 0.00 | 2.62 | 0.00 | 97 | 1014.1 |
| 20260510081525 | 18 | 352 | 0.0 | 3.2 | 0.00 | 2.62 | 0.00 | 97 | 1014.1 |
| 20260510081006 | 18 | 352 | 0.0 | 3.2 | 0.00 | 2.62 | 0.00 | 97 | 1013.8 |
| 20260510080509 | 18 | 352 | 0.0 | 3.2 | 0.00 | 2.62 | 0.00 | 97 | 1013.8 |
| 20260510080023 | 18 | 352 | 0.0 | 3.2 | 0.00 | 2.62 | 0.00 | 97 | 1013.6 |
| 20260510075507 | 18 | 352 | 0.0 | 3.2 | 0.00 | 2.62 | 0.00 | 97 | 1013.7 |
| 20260510075012 | 18 | 352 | 1.6 | 3.2 | 0.00 | 2.62 | 0.00 | 97 | 1013.6 |
| 20260510074531 | 18 | 352 | 0.0 | 3.2 | 0.00 | 2.62 | 0.00 | 97 | 1013.5 |
| 20260510074006 | 18 | 352 | 0.0 | 3.2 | 0.00 | 2.62 | 0.00 | 97 | 1013.5 |
| 20260510073503 | 18 | 352 | 0.0 | 3.2 | 0.00 | 2.62 | 0.00 | 97 | 1013.3 |
| 20260510073018 | 18 | 352 | 0.0 | 3.2 | 0.00 | 2.62 | 0.00 | 97 | 1013.2 |
| 20260510072504 | 18 | 352 | 0.0 | 3.2 | 0.00 | 2.62 | 0.00 | 97 | 1013.2 |
| 20260510072003 | 18 | 352 | 1.6 | 3.2 | 0.00 | 2.62 | 0.00 | 97 | 1013.2 |
| 20260510071522 | 18 | 5 | 0.0 | 3.2 | 0.00 | 2.62 | 0.00 | 97 | 1013.1 |
| 20260510071006 | 18 | 74 | 1.6 | 4.8 | 0.00 | 2.62 | 0.00 | 97 | 1013.1 |
| 20260510070506 | 18 | 345 | 3.2 | 6.4 | 0.00 | 2.62 | 0.00 | 97 | 1013.2 |
| 20260510070027 | 18 | 144 | 3.2 | 6.4 | 0.00 | 2.62 | 0.00 | 97 | 1013.1 |
| 20260510065503 | 18 | 349 | 0.0 | 3.2 | 0.00 | 2.62 | 0.00 | 97 | 1013.3 |
| 20260510065003 | 18 | 349 | 0.0 | 3.2 | 0.00 | 2.62 | 0.00 | 97 | 1013.4 |
| 20260510064508 | 18 | 349 | 0.0 | 3.2 | 0.00 | 2.62 | 0.00 | 97 | 1013.4 |
| 20260510064003 | 18 | 349 | 0.0 | 3.2 | 0.00 | 2.62 | 0.00 | 97 | 1013.4 |
| 20260510063505 | 18 | 349 | 1.6 | 3.2 | 0.00 | 2.62 | 0.00 | 97 | 1013.4 |
| 20260510063014 | 18 | 349 | 0.0 | 3.2 | 0.00 | 2.62 | 0.00 | 97 | 1013.7 |
| 20260510062503 | 18 | 349 | 0.0 | 3.2 | 0.00 | 2.62 | 0.00 | 97 | 1013.5 |
| 20260510062007 | 18 | 349 | 0.0 | 3.2 | 0.00 | 2.62 | 0.00 | 97 | 1013.5 |
| 20260510061519 | 18 | 349 | 0.0 | 3.2 | 0.00 | 2.62 | 0.00 | 97 | 1013.7 |
| 20260510061007 | 18 | 349 | 1.6 | 3.2 | 0.00 | 2.62 | 0.00 | 97 | 1013.5 |
| 20260510060506 | 18 | 340 | 1.6 | 3.2 | 0.00 | 2.62 | 0.00 | 97 | 1013.6 |
| 20260510060021 | 18 | 239 | 0.0 | 3.2 | 0.00 | 2.62 | 0.00 | 97 | 1013.6 |
| 20260510055510 | 18 | 239 | 0.0 | 3.2 | 0.00 | 2.62 | 0.00 | 97 | 1013.7 |
| 20260510055006 | 18 | 239 | 0.0 | 3.2 | 0.00 | 2.62 | 0.00 | 97 | 1013.7 |
| 20260510054506 | 18 | 239 | 0.0 | 3.2 | 0.00 | 2.62 | 0.00 | 97 | 1013.9 |
| 20260510054005 | 18 | 239 | 0.0 | 3.2 | 0.00 | 2.62 | 0.00 | 97 | 1013.9 |
| 20260510053502 | 18 | 296 | 0.0 | 3.2 | 0.00 | 2.62 | 0.00 | 97 | 1014.0 |
| 20260510053012 | 18 | 296 | 0.0 | 4.8 | 0.00 | 2.62 | 0.00 | 97 | 1014.1 |
| 20260510052504 | 18 | 296 | 0.0 | 4.8 | 0.00 | 2.62 | 0.00 | 97 | 1014.2 |
| 20260510052002 | 18 | 298 | 1.6 | 4.8 | 0.00 | 2.62 | 0.00 | 97 | 1014.3 |
| 20260510051518 | 18 | 331 | 1.6 | 3.2 | 0.00 | 2.62 | 0.00 | 97 | 1014.2 |
| 20260510051006 | 18 | 309 | 0.0 | 3.2 | 0.00 | 2.62 | 0.00 | 97 | 1014.3 |
| 20260510050509 | 18 | 273 | 1.6 | 4.8 | 0.00 | 2.62 | 0.00 | 97 | 1014.5 |
| 20260510050022 | 18 | 270 | 3.2 | 4.8 | 0.00 | 2.62 | 0.00 | 97 | 1014.9 |
| 20260510045507 | 18 | 278 | 3.2 | 4.8 | 0.00 | 2.62 | 2.62 | 97 | 1014.6 |
| 20260510045010 | 18 | 297 | 3.2 | 6.4 | 0.00 | 2.62 | 2.62 | 97 | 1014.6 |
| 20260510044533 | 18 | 325 | 3.2 | 6.4 | 0.00 | 2.62 | 2.62 | 97 | 1014.7 |
| 20260510044010 | 18 | 281 | 1.6 | 3.2 | 0.00 | 2.62 | 2.62 | 97 | 1014.9 |
| 20260510043504 | 18 | 239 | 0.0 | 3.2 | 0.00 | 2.62 | 2.62 | 97 | 1014.5 |
| 20260510043015 | 18 | 229 | 0.0 | 4.8 | 0.00 | 2.62 | 2.62 | 97 | 1014.3 |
| 20260510042503 | 18 | 267 | 1.6 | 4.8 | 0.00 | 2.62 | 2.62 | 97 | 1014.2 |
| 20260510042005 | 18 | 273 | 1.6 | 3.2 | 0.00 | 2.64 | 2.62 | 97 | 1014.1 |
| 20260510041518 | 18 | 219 | 1.6 | 4.8 | 0.00 | 2.64 | 2.62 | 97 | 1013.6 |
| 20260510041005 | 18 | 139 | 1.6 | 4.8 | 0.00 | 2.64 | 2.62 | 97 | 1013.1 |
| 20260510040503 | 18 | 92 | 3.2 | 6.4 | 0.00 | 2.64 | 2.62 | 97 | 1012.7 |
| 20260510040021 | 19 | 103 | 3.2 | 6.4 | 0.00 | 2.64 | 2.62 | 97 | 1012.9 |
| 20260510035507 | 19 | 146 | 1.6 | 6.4 | 0.00 | 2.64 | 2.62 | 97 | 1013.1 |
| 20260510035007 | 19 | 92 | 3.2 | 6.4 | 0.00 | 2.64 | 2.62 | 97 | 1012.8 |
| 20260510034524 | 19 | 76 | 3.2 | 6.4 | 0.00 | 2.64 | 2.62 | 97 | 1012.8 |
| 20260510034007 | 19 | 74 | 3.2 | 6.4 | 0.00 | 2.64 | 2.62 | 97 | 1013.0 |
| 20260510033508 | 19 | 106 | 3.2 | 6.4 | 0.00 | 2.64 | 2.62 | 97 | 1013.3 |
| 20260510033026 | 19 | 85 | 3.2 | 6.4 | 0.03 | 2.64 | 2.62 | 97 | 1013.2 |
| 20260510032503 | 19 | 86 | 3.2 | 6.4 | 0.03 | 2.64 | 2.62 | 97 | 1013.6 |
| 20260510032004 | 19 | 43 | 4.8 | 6.4 | 0.03 | 2.64 | 2.62 | 96 | 1013.7 |
| 20260510031520 | 19 | 32 | 1.6 | 3.2 | 0.03 | 2.64 | 2.62 | 96 | 1014.0 |
| 20260510031004 | 19 | 69 | 1.6 | 3.2 | 0.03 | 2.64 | 2.62 | 96 | 1014.2 |
| 20260510030506 | 19 | 92 | 1.6 | 1.6 | 0.03 | 2.64 | 2.62 | 97 | 1014.7 |
| 20260510030031 | 19 | 315 | 0.0 | 3.2 | 0.03 | 2.64 | 2.62 | 96 | 1015.1 |
| 20260510025506 | 19 | 315 | 0.0 | 3.2 | 0.03 | 2.64 | 2.62 | 96 | 1015.3 |
| 20260510025006 | 19 | 315 | 0.0 | 1.6 | 0.03 | 2.64 | 2.62 | 96 | 1015.3 |
| 20260510024525 | 19 | 315 | 0.0 | 0.0 | 0.03 | 2.64 | 2.62 | 96 | 1015.2 |
| 20260510024007 | 19 | 315 | 0.0 | 1.6 | 0.03 | 2.64 | 2.62 | 96 | 1015.2 |
| 20260510023510 | 19 | 315 | 0.0 | 3.2 | 0.03 | 2.64 | 2.62 | 96 | 1015.1 |
| 20260510023026 | 19 | 315 | 0.0 | 3.2 | 0.00 | 2.62 | 2.59 | 96 | 1015.1 |
| 20260510022507 | 19 | 315 | 0.0 | 3.2 | 0.00 | 2.62 | 2.59 | 96 | 1015.1 |
| 20260510022010 | 19 | 315 | 0.0 | 3.2 | 0.00 | 2.62 | 2.59 | 96 | 1014.7 |
| 20260510021514 | 19 | 315 | 1.6 | 6.4 | 0.00 | 2.62 | 2.59 | 96 | 1014.7 |
| 20260510021004 | 19 | 24 | 1.6 | 6.4 | 0.00 | 2.62 | 2.59 | 96 | 1014.1 |
| 20260510020505 | 19 | 75 | 3.2 | 4.8 | 0.00 | 2.62 | 2.59 | 96 | 1014.1 |
| 20260510020016 | 19 | 142 | 0.0 | 3.2 | 0.00 | 2.62 | 2.59 | 96 | 1014.2 |
| 20260510015505 | 19 | 142 | 0.0 | 1.6 | 0.00 | 2.62 | 2.59 | 96 | 1014.4 |
| 20260510015006 | 19 | 142 | 0.0 | 1.6 | 0.00 | 2.62 | 2.59 | 96 | 1014.5 |
| 20260510014521 | 19 | 142 | 0.0 | 0.0 | 0.00 | 2.62 | 2.59 | 96 | 1014.5 |
| 20260510014007 | 19 | 142 | 0.0 | 0.0 | 0.00 | 2.62 | 2.59 | 96 | 1014.2 |
| 20260510013508 | 19 | 142 | 0.0 | 0.0 | 0.00 | 2.62 | 2.59 | 96 | 1014.1 |
| 20260510013025 | 19 | 142 | 0.0 | 0.0 | 0.00 | 2.62 | 2.59 | 96 | 1014.0 |
| 20260510012507 | 19 | 142 | 0.0 | 3.2 | 0.00 | 2.62 | 2.59 | 96 | 1013.9 |
| 20260510012010 | 19 | 142 | 0.0 | 3.2 | 0.00 | 2.62 | 2.59 | 96 | 1013.9 |
| 20260510011528 | 19 | 142 | 0.0 | 1.6 | 0.00 | 2.62 | 2.59 | 96 | 1013.7 |
| 20260510011013 | 19 | 142 | 1.6 | 1.6 | 0.00 | 2.62 | 2.59 | 96 | 1013.5 |
| 20260510010503 | 20 | 169 | 0.0 | 3.2 | 0.00 | 2.62 | 2.59 | 96 | 1013.5 |
| 20260510010016 | 20 | 248 | 0.0 | 3.2 | 0.00 | 2.62 | 2.59 | 95 | 1013.6 |
| 20260510005503 | 20 | 248 | 0.0 | 3.2 | 0.00 | 2.62 | 2.59 | 95 | 1013.6 |
| 20260510005005 | 20 | 248 | 0.0 | 3.2 | 0.00 | 2.62 | 2.59 | 95 | 1013.6 |
| 20260510004518 | 20 | 248 | 0.0 | 3.2 | 0.00 | 2.62 | 2.59 | 95 | 1013.5 |
| 20260510004010 | 20 | 248 | 0.0 | 3.2 | 0.00 | 2.62 | 2.59 | 95 | 1013.5 |
| 20260510003508 | 20 | 248 | 0.0 | 3.2 | 0.00 | 2.62 | 2.59 | 95 | 1013.5 |
| 20260510003026 | 20 | 248 | 0.0 | 3.2 | 0.00 | 2.62 | 2.59 | 95 | 1013.6 |
| 20260510002506 | 20 | 248 | 0.0 | 3.2 | 0.00 | 2.62 | 2.59 | 95 | 1013.7 |
| 20260510002010 | 20 | 334 | 0.0 | 3.2 | 0.00 | 2.62 | 2.59 | 95 | 1013.7 |
| 20260510001525 | 20 | 334 | 1.6 | 3.2 | 0.00 | 2.62 | 2.59 | 95 | 1013.6 |
| 20260510001009 | 20 | 346 | 1.6 | 3.2 | 0.00 | 2.62 | 2.59 | 94 | 1013.5 |
| 20260510000510 | 20 | 345 | 0.0 | 3.2 | 0.00 | 2.62 | 2.59 | 94 | 1013.3 |
| 20260510000030 | 20 | 346 | 1.6 | 3.2 | 0.00 | 2.62 | 2.59 | 94 | 1013.1 |
| 20260509235503 | 20 | 22 | 0.0 | 3.2 | 0.00 | 2.62 | 2.59 | 94 | 1012.9 |
| 20260509235008 | 20 | 126 | 0.0 | 3.2 | 0.00 | 2.62 | 2.59 | 94 | 1012.9 |
| 20260509234518 | 20 | 125 | 0.0 | 1.6 | 0.00 | 2.62 | 2.59 | 94 | 1012.8 |
| 20260509234006 | 20 | 114 | 1.6 | 3.2 | 0.00 | 2.62 | 2.59 | 93 | 1012.9 |
| 20260509233505 | 20 | 49 | 1.6 | 1.6 | 0.00 | 2.62 | 2.59 | 93 | 1012.9 |
| 20260509233025 | 20 | 120 | 0.0 | 1.6 | 0.00 | 2.62 | 2.59 | 93 | 1012.8 |
| 20260509232510 | 20 | 16 | 0.0 | 3.2 | 0.00 | 2.62 | 2.59 | 93 | 1012.9 |
| 20260509232009 | 20 | 333 | 0.0 | 3.2 | 0.00 | 2.62 | 2.59 | 93 | 1013.1 |
| 20260509231524 | 20 | 333 | 0.0 | 1.6 | 0.00 | 2.62 | 2.59 | 92 | 1013.2 |
| 20260509231007 | 20 | 333 | 0.0 | 3.2 | 0.00 | 2.62 | 2.59 | 92 | 1013.3 |
| 20260509230508 | 20 | 333 | 0.0 | 3.2 | 0.00 | 2.62 | 2.59 | 92 | 1013.1 |
| 20260509230027 | 20 | 333 | 0.0 | 3.2 | 0.00 | 2.62 | 2.59 | 92 | 1013.0 |
| 20260509225507 | 20 | 42 | 1.6 | 3.2 | 0.00 | 2.62 | 2.59 | 92 | 1012.7 |
| 20260509225003 | 20 | 61 | 1.6 | 3.2 | 0.00 | 2.62 | 2.59 | 92 | 1012.6 |
| 20260509224517 | 20 | 352 | 1.6 | 6.4 | 0.00 | 2.62 | 2.59 | 91 | 1012.4 |
| 20260509224003 | 20 | 18 | 0.0 | 8.0 | 0.00 | 2.62 | 2.59 | 91 | 1012.3 |
| 20260509223504 | 21 | 53 | 3.2 | 8.0 | 0.00 | 2.64 | 2.59 | 91 | 1012.1 |
| 20260509223018 | 21 | 31 | 3.2 | 6.4 | 0.00 | 2.64 | 2.59 | 90 | 1012.0 |
| 20260509222507 | 21 | 18 | 3.2 | 6.4 | 0.00 | 2.64 | 2.59 | 91 | 1012.3 |
| 20260509222006 | 21 | 325 | 1.6 | 8.0 | 0.00 | 2.72 | 2.59 | 91 | 1012.4 |
| 20260509221528 | 21 | 341 | 1.6 | 8.0 | 0.00 | 2.77 | 2.59 | 91 | 1012.7 |
| 20260509221013 | 21 | 333 | 3.2 | 11.3 | 0.00 | 2.77 | 2.59 | 91 | 1012.7 |
| 20260509220510 | 21 | 325 | 4.8 | 11.3 | 0.00 | 2.79 | 2.59 | 91 | 1012.9 |
| 20260509220030 | 21 | 322 | 3.2 | 11.3 | 0.00 | 2.79 | 2.59 | 91 | 1012.9 |
| 20260509215510 | 21 | 319 | 4.8 | 11.3 | 0.00 | 2.79 | 2.59 | 91 | 1012.8 |
| 20260509215008 | 21 | 299 | 1.6 | 6.4 | 0.00 | 2.79 | 2.59 | 91 | 1012.5 |
| 20260509214531 | 21 | 295 | 1.6 | 6.4 | 0.00 | 2.79 | 2.59 | 91 | 1012.3 |